Погода в Мостовом

Украина / Николаевская область     48°03′34″N   31°34′15″E
темп.,
°C
ветер,
м/с
пор.,
м/с
влажн.,
%
обл.,
%
осадки,
мм/ч
давл.,
гПа
погр.,
м
17 сентября, пт
пт1700:00+15в33495 0.0 101831
03:00+13ююв33485 0.0 101825
06:00+12ююв225268 0.0 101717
09:00+18ююв464481 0.0 1016288
12:00+23ю7834100 0.0 10141177
15:00+23ююз8938100 0.0 10121221
18:00+22ю794696 0.0 1011890
21:00+18ю61364100 0.5 1011513
18 сентября, сб
сб1800:00+17ю61285100 0.9 1010480
03:00+17ююв81579100 1.3 1009590
06:00+16ююв71480100 0.0 1008600
09:00+17ююв71380100 0.2 1008721
12:00+18ю71087100 1.6 1007640
15:00+18сз248782 5.6 1007388
18:00+20ссз3664100 0.2 1007332
21:00+16с38810 0.2 1009149
19 сентября, вс
вс1900:00+14с348438 0.0 101054
03:00+13ссв22885 0.0 101018
06:00+13вюв018277 0.0 101013
09:00+16юв237377 0.8 1009196
12:00+20ююз565660 0.7 10081417
15:00+21зюз684399 1.6 10081106
18:00+16сз595914 0.0 1009703
21:00+12сз6116483 0.0 1011357
20 сентября, пн
пн2000:00+11зсз4964100 0.0 1011502
03:00+9з387323 0.0 1011256
06:00+9з4971100 0.0 1011555
09:00+10з696768 0.0 1011795
12:00+12з71063100 0.0 10121459
15:00+11зсз7968100 0.0 10121016
18:00+11зсз6107396 0.0 1013735
21:00+12зсз6961100 0.0 10151253
21 сентября, вт
вт2100:00+9зсз497629 0.0 1016274
03:00+8зсз6107150 0.0 1017609
06:00+6з5108313 0.0 1018373
09:00+8зсз68707 0.0 1018580
12:00+13зсз674841 0.0 10181399
15:00+13зсз784868 0.0 10181520
18:00+11зсз6850100 0.0 10191533
21:00+10зсз5850100 0.0 10191299